owner,sensor,date,latitude,longitude,vertical_datum,direction_of_sea_water_velocity,sea_water_speed,upward_sea_water_velocity,qcFlag 
TABS,ioos:station:wmo:42046:1,2007-08-01T00:00:00Z,27.8903,-94.0367,2.0,201.0704855,37.13280221,-99999.0,'11111222,11111222,99999999' 
TABS,ioos:station:wmo:42046:1,2007-08-01T00:30:00Z,27.8903,-94.0367,2.0,204.7903268,36.25062896,-99999.0,'11111222,11111222,99999999' 
TABS,ioos:station:wmo:42046:1,2007-08-01T01:00:00Z,27.8903,-94.0367,2.0,213.602859,40.22135751,-99999.0,'11111222,11111222,99999999' 
TABS,ioos:station:wmo:42046:1,2007-08-01T01:30:00Z,27.8903,-94.0367,2.0,225.7771856,16.67511319,-99999.0,'11111222,11111222,99999999' 
TABS,ioos:station:wmo:42046:1,2007-08-01T02:00:00Z,27.8903,-94.0367,2.0,215.4846488,23.99701023,-99999.0,'11111222,11111222,99999999' 
TABS,ioos:station:wmo:42046:1,2007-08-01T02:30:00Z,27.8903,-94.0367,2.0,224.4542696,31.94146052,-99999.0,'11111222,11111222,99999999' 
TABS,ioos:station:wmo:42046:1,2007-08-01T03:00:00Z,27.8903,-94.0367,2.0,226.0264668,32.75137402,-99999.0,'11111222,11111222,99999999' 
TABS,ioos:station:wmo:42046:1,2007-08-01T03:30:00Z,27.8903,-94.0367,2.0,230.7912105,27.88922731,-99999.0,'11111222,11111222,99999999' 
TABS,ioos:station:wmo:42046:1,2007-08-01T04:00:00Z,27.8903,-94.0367,2.0,229.9213809,24.478368,-99999.0,'11111222,11111222,99999999' 
TABS,ioos:station:wmo:42046:1,2007-08-01T04:30:00Z,27.8903,-94.0367,2.0,238.5892157,15.61885079,-99999.0,'11111222,11111222,99999999' 
TABS,ioos:station:wmo:42046:1,2007-08-01T05:00:00Z,27.8903,-94.0367,2.0,256.6485244,16.02304902,-99999.0,'11111222,11111222,99999999' 
TABS,ioos:station:wmo:42046:1,2007-08-01T05:30:00Z,27.8903,-94.0367,2.0,259.5238406,9.294928725,-99999.0,'11133222,11111222,99999999' 
TABS,ioos:station:wmo:42046:1,2007-08-01T06:00:00Z,27.8903,-94.0367,2.0,276.4908536,10.52747358,-99999.0,'11111222,11111222,99999999' 
TABS,ioos:station:wmo:42046:1,2007-08-01T06:30:00Z,27.8903,-94.0367,2.0,298.3565193,13.30663368,-99999.0,'11111222,11111222,99999999' 
TABS,ioos:station:wmo:42046:1,2007-08-01T07:00:00Z,27.8903,-94.0367,2.0,314.4189818,12.54472,-99999.0,'11111222,11111222,99999999' 
TABS,ioos:station:wmo:42046:1,2007-08-01T07:30:00Z,27.8903,-94.0367,2.0,315.2241257,14.48165736,-99999.0,'11111222,11111222,99999999' 
TABS,ioos:station:wmo:42046:1,2007-08-01T08:00:00Z,27.8903,-94.0367,2.0,334.7924162,13.59463497,-99999.0,'11111222,11111222,99999999' 
TABS,ioos:station:wmo:42046:1,2007-08-01T08:30:00Z,27.8903,-94.0367,2.0,331.1980208,17.64260752,-99999.0,'11111222,11111222,99999999' 
TABS,ioos:station:wmo:42046:1,2007-08-01T09:00:00Z,27.8903,-94.0367,2.0,338.6532263,19.66946873,-99999.0,'11111222,11111222,99999999' 
TABS,ioos:station:wmo:42046:1,2007-08-01T09:30:00Z,27.8903,-94.0367,2.0,349.0733531,19.36101754,-99999.0,'11111222,11111222,99999999' 
TABS,ioos:station:wmo:42046:1,2007-08-01T10:00:00Z,27.8903,-94.0367,2.0,354.5358643,19.21733072,-99999.0,'11111222,11111222,99999999' 
TABS,ioos:station:wmo:42046:1,2007-08-01T10:30:00Z,27.8903,-94.0367,2.0,357.571108,20.99886902,-99999.0,'11111222,11111222,99999999' 
TABS,ioos:station:wmo:42046:1,2007-08-01T11:00:00Z,27.8903,-94.0367,2.0,14.96445515,8.984698103,-99999.0,'11133222,11111222,99999999' 
TABS,ioos:station:wmo:42046:1,2007-08-01T11:30:00Z,27.8903,-94.0367,2.0,22.20731595,26.48453322,-99999.0,'11111222,11111222,99999999' 
TABS,ioos:station:wmo:42046:1,2007-08-01T12:00:00Z,27.8903,-94.0367,2.0,25.01838471,25.84494728,-99999.0,'11111222,11111222,99999999' 
TABS,ioos:station:wmo:42046:1,2007-08-01T12:30:00Z,27.8903,-94.0367,2.0,33.15906273,25.43132321,-99999.0,'11111222,11111222,99999999' 
TABS,ioos:station:wmo:42046:1,2007-08-01T13:00:00Z,27.8903,-94.0367,2.0,42.12191886,25.62959617,-99999.0,'11111222,11111222,99999999' 
TABS,ioos:station:wmo:42046:1,2007-08-01T13:30:00Z,27.8903,-94.0367,2.0,46.71845921,25.46729668,-99999.0,'11111222,11111222,99999999' 
TABS,ioos:station:wmo:42046:1,2007-08-01T14:00:00Z,27.8903,-94.0367,2.0,54.06675645,25.08335105,-99999.0,'11111222,11111222,99999999' 
TABS,ioos:station:wmo:42046:1,2007-08-01T14:30:00Z,27.8903,-94.0367,2.0,64.87728953,24.51954526,-99999.0,'11111222,11111222,99999999' 
TABS,ioos:station:wmo:42046:1,2007-08-01T15:00:00Z,27.8903,-94.0367,2.0,69.89834914,24.3535172,-99999.0,'11111222,11111222,99999999' 
TABS,ioos:station:wmo:42046:1,2007-08-01T15:30:00Z,27.8903,-94.0367,2.0,77.8477642,25.74694739,-99999.0,'11111222,11111222,99999999' 
TABS,ioos:station:wmo:42046:1,2007-08-01T16:00:00Z,27.8903,-94.0367,2.0,79.53440806,25.81953137,-99999.0,'11111222,11111222,99999999' 
TABS,ioos:station:wmo:42046:1,2007-08-01T16:30:00Z,27.8903,-94.0367,2.0,84.90103866,25.54107476,-99999.0,'11111222,11111222,99999999' 
TABS,ioos:station:wmo:42046:1,2007-08-01T17:00:00Z,27.8903,-94.0367,2.0,93.32106271,25.20232529,-99999.0,'11111222,11111222,99999999' 
TABS,ioos:station:wmo:42046:1,2007-08-01T17:30:00Z,27.8903,-94.0367,2.0,93.52349848,25.70859778,-99999.0,'11111222,11111222,99999999' 
TABS,ioos:station:wmo:42046:1,2007-08-01T18:00:00Z,27.8903,-94.0367,2.0,104.6825531,23.43528323,-99999.0,'11111222,11111222,99999999' 
TABS,ioos:station:wmo:42046:1,2007-08-01T18:30:00Z,27.8903,-94.0367,2.0,110.3498986,23.75248408,-99999.0,'11111222,11111222,99999999' 
TABS,ioos:station:wmo:42046:1,2007-08-01T19:00:00Z,27.8903,-94.0367,2.0,109.1150104,23.17796583,-99999.0,'11111222,11111222,99999999' 
TABS,ioos:station:wmo:42046:1,2007-08-01T19:30:00Z,27.8903,-94.0367,2.0,116.1198468,21.87387711,-99999.0,'11111222,11111222,99999999' 
TABS,ioos:station:wmo:42046:1,2007-08-01T20:00:00Z,27.8903,-94.0367,2.0,121.6630876,20.23148042,-99999.0,'11111222,11111222,99999999' 
TABS,ioos:station:wmo:42046:1,2007-08-01T20:30:00Z,27.8903,-94.0367,2.0,130.4447533,20.6561952,-99999.0,'11111222,11111222,99999999' 
TABS,ioos:station:wmo:42046:1,2007-08-01T21:00:00Z,27.8903,-94.0367,2.0,132.271801,21.54167357,-99999.0,'11111222,11111222,99999999' 
TABS,ioos:station:wmo:42046:1,2007-08-01T21:30:00Z,27.8903,-94.0367,2.0,141.8395551,20.78127041,-99999.0,'11111222,11111222,99999999' 
TABS,ioos:station:wmo:42046:1,2007-08-01T22:00:00Z,27.8903,-94.0367,2.0,155.933389,24.62015435,-99999.0,'11111222,11111222,99999999' 
TABS,ioos:station:wmo:42046:1,2007-08-01T22:30:00Z,27.8903,-94.0367,2.0,160.9571418,26.23573136,-99999.0,'11111222,11111222,99999999' 
TABS,ioos:station:wmo:42046:1,2007-08-01T23:00:00Z,27.8903,-94.0367,2.0,165.2345691,25.54349428,-99999.0,'11111222,11111222,99999999' 
TABS,ioos:station:wmo:42046:1,2007-08-01T23:30:00Z,27.8903,-94.0367,2.0,169.7127566,25.92676224,-99999.0,'11111222,11111222,99999999' 
TABS,ioos:station:wmo:42046:1,2007-08-02T00:00:00Z,27.8903,-94.0367,2.0,179.4781096,25.26104709,-99999.0,'11111222,11111222,99999999' 
TABS,ioos:station:wmo:42046:1,2007-08-02T00:30:00Z,27.8903,-94.0367,2.0,187.1761729,24.89502159,-99999.0,'11111222,11111222,99999999' 
TABS,ioos:station:wmo:42046:1,2007-08-02T01:00:00Z,27.8903,-94.0367,2.0,200.3236706,25.13479262,-99999.0,'11111222,11111222,99999999' 
TABS,ioos:station:wmo:42046:1,2007-08-02T01:30:00Z,27.8903,-94.0367,2.0,180.8341332,8.24087374,-99999.0,'11133222,11111222,99999999' 
TABS,ioos:station:wmo:42046:1,2007-08-02T02:00:00Z,27.8903,-94.0367,2.0,215.2104274,12.01903906,-99999.0,'11111222,11111222,99999999' 
TABS,ioos:station:wmo:42046:1,2007-08-02T02:30:00Z,27.8903,-94.0367,2.0,212.0471453,20.221585,-99999.0,'11111222,11111222,99999999' 
TABS,ioos:station:wmo:42046:1,2007-08-02T03:00:00Z,27.8903,-94.0367,2.0,219.8809029,20.36812461,-99999.0,'11111222,11111222,99999999' 
TABS,ioos:station:wmo:42046:1,2007-08-02T03:30:00Z,27.8903,-94.0367,2.0,233.0855678,18.1480054,-99999.0,'11111222,11111222,99999999' 
TABS,ioos:station:wmo:42046:1,2007-08-02T04:00:00Z,27.8903,-94.0367,2.0,247.010916,20.07426213,-99999.0,'11111222,11111222,99999999' 
TABS,ioos:station:wmo:42046:1,2007-08-02T04:30:00Z,27.8903,-94.0367,2.0,242.6375324,18.64613901,-99999.0,'11111222,11111222,99999999' 
TABS,ioos:station:wmo:42046:1,2007-08-02T05:00:00Z,27.8903,-94.0367,2.0,261.8226951,13.85081225,-99999.0,'11111222,11111222,99999999' 
TABS,ioos:station:wmo:42046:1,2007-08-02T05:30:00Z,27.8903,-94.0367,2.0,272.8949268,12.4759168,-99999.0,'11111222,11111222,99999999' 
TABS,ioos:station:wmo:42046:1,2007-08-02T06:00:00Z,27.8903,-94.0367,2.0,289.9409855,16.12685958,-99999.0,'11111222,11111222,99999999' 
TABS,ioos:station:wmo:42046:1,2007-08-02T06:30:00Z,27.8903,-94.0367,2.0,294.553367,12.61025376,-99999.0,'11111222,11111222,99999999' 
TABS,ioos:station:wmo:42046:1,2007-08-02T07:00:00Z,27.8903,-94.0367,2.0,301.4334675,15.28275172,-99999.0,'11111222,11111222,99999999' 
TABS,ioos:station:wmo:42046:1,2007-08-02T07:30:00Z,27.8903,-94.0367,2.0,313.0290577,15.21179805,-99999.0,'11111222,11111222,99999999' 
TABS,ioos:station:wmo:42046:1,2007-08-02T08:00:00Z,27.8903,-94.0367,2.0,318.4420167,12.01419993,-99999.0,'11111222,11111222,99999999' 
TABS,ioos:station:wmo:42046:1,2007-08-02T08:30:00Z,27.8903,-94.0367,2.0,334.797193,15.61663856,-99999.0,'11111222,11111222,99999999' 
TABS,ioos:station:wmo:42046:1,2007-08-02T09:00:00Z,27.8903,-94.0367,2.0,326.7752144,17.42925414,-99999.0,'11111222,11111222,99999999' 
TABS,ioos:station:wmo:42046:1,2007-08-02T09:30:00Z,27.8903,-94.0367,2.0,332.2969438,16.43387051,-99999.0,'11111222,11111222,99999999' 
TABS,ioos:station:wmo:42046:1,2007-08-02T10:00:00Z,27.8903,-94.0367,2.0,342.7415815,18.63923013,-99999.0,'11111222,11111222,99999999' 
TABS,ioos:station:wmo:42046:1,2007-08-02T10:30:00Z,27.8903,-94.0367,2.0,346.7139662,16.49140989,-99999.0,'11111222,11111222,99999999' 
TABS,ioos:station:wmo:42046:1,2007-08-02T11:00:00Z,27.8903,-94.0367,2.0,351.035277,7.764856728,-99999.0,'11133222,11111222,99999999' 
TABS,ioos:station:wmo:42046:1,2007-08-02T11:30:00Z,27.8903,-94.0367,2.0,8.060434549,22.03770632,-99999.0,'11111222,11111222,99999999' 
TABS,ioos:station:wmo:42046:1,2007-08-02T12:00:00Z,27.8903,-94.0367,2.0,11.8284822,22.97790678,-99999.0,'11111222,11111222,99999999' 
TABS,ioos:station:wmo:42046:1,2007-08-02T12:30:00Z,27.8903,-94.0367,2.0,19.84750438,20.9121711,-99999.0,'11111222,11111222,99999999' 
TABS,ioos:station:wmo:42046:1,2007-08-02T13:00:00Z,27.8903,-94.0367,2.0,34.98300311,20.52913296,-99999.0,'11111222,11111222,99999999' 
TABS,ioos:station:wmo:42046:1,2007-08-02T13:30:00Z,27.8903,-94.0367,2.0,41.85685743,20.89107944,-99999.0,'11111222,11111222,99999999' 
TABS,ioos:station:wmo:42046:1,2007-08-02T14:00:00Z,27.8903,-94.0367,2.0,57.3182757,21.90850292,-99999.0,'11111222,11111222,99999999' 
TABS,ioos:station:wmo:42046:1,2007-08-02T14:30:00Z,27.8903,-94.0367,2.0,68.27606102,20.61405831,-99999.0,'11111222,11111222,99999999' 
TABS,ioos:station:wmo:42046:1,2007-08-02T15:00:00Z,27.8903,-94.0367,2.0,75.56102589,21.73657977,-99999.0,'11111222,11111222,99999999' 
TABS,ioos:station:wmo:42046:1,2007-08-02T15:30:00Z,27.8903,-94.0367,2.0,91.90638713,20.74148018,-99999.0,'11111222,11111222,99999999' 
TABS,ioos:station:wmo:42046:1,2007-08-02T16:00:00Z,27.8903,-94.0367,2.0,96.87668148,21.46441241,-99999.0,'11111222,11111222,99999999' 
TABS,ioos:station:wmo:42046:1,2007-08-02T16:30:00Z,27.8903,-94.0367,2.0,100.6823301,20.76994463,-99999.0,'11111222,11111222,99999999' 
TABS,ioos:station:wmo:42046:1,2007-08-02T17:00:00Z,27.8903,-94.0367,2.0,112.3177952,21.0141381,-99999.0,'11111222,11111222,99999999' 
TABS,ioos:station:wmo:42046:1,2007-08-02T17:30:00Z,27.8903,-94.0367,2.0,116.4518561,20.38403542,-99999.0,'11111222,11111222,99999999' 
TABS,ioos:station:wmo:42046:1,2007-08-02T18:00:00Z,27.8903,-94.0367,2.0,125.7547365,19.9377757,-99999.0,'11111222,11111222,99999999' 
TABS,ioos:station:wmo:42046:1,2007-08-02T18:30:00Z,27.8903,-94.0367,2.0,132.2316237,20.20440546,-99999.0,'11111222,11111222,99999999' 
TABS,ioos:station:wmo:42046:1,2007-08-02T19:00:00Z,27.8903,-94.0367,2.0,129.8573618,18.38098202,-99999.0,'11111222,11111222,99999999' 
TABS,ioos:station:wmo:42046:1,2007-08-02T19:30:00Z,27.8903,-94.0367,2.0,130.464944,18.24390309,-99999.0,'11111222,11111222,99999999' 
TABS,ioos:station:wmo:42046:1,2007-08-02T20:00:00Z,27.8903,-94.0367,2.0,139.55261,20.57809758,-99999.0,'11111222,11111222,99999999' 
TABS,ioos:station:wmo:42046:1,2007-08-02T20:30:00Z,27.8903,-94.0367,2.0,146.4453937,21.09530754,-99999.0,'11111222,11111222,99999999' 
TABS,ioos:station:wmo:42046:1,2007-08-02T21:00:00Z,27.8903,-94.0367,2.0,152.0997363,20.92185938,-99999.0,'11111222,11111222,99999999' 
TABS,ioos:station:wmo:42046:1,2007-08-02T21:30:00Z,27.8903,-94.0367,2.0,157.131348,22.33559491,-99999.0,'11111222,11111222,99999999' 
TABS,ioos:station:wmo:42046:1,2007-08-02T22:00:00Z,27.8903,-94.0367,2.0,156.239081,20.47559767,-99999.0,'11111222,11111222,99999999' 
TABS,ioos:station:wmo:42046:1,2007-08-02T22:30:00Z,27.8903,-94.0367,2.0,165.8261638,21.23648041,-99999.0,'11111222,11111222,99999999' 
TABS,ioos:station:wmo:42046:1,2007-08-02T23:00:00Z,27.8903,-94.0367,2.0,176.1396713,23.17256999,-99999.0,'11111222,11111222,99999999' 
TABS,ioos:station:wmo:42046:1,2007-08-02T23:30:00Z,27.8903,-94.0367,2.0,179.7142223,22.07027413,-99999.0,'11111222,11111222,99999999' 
TABS,ioos:station:wmo:42046:1,2007-08-03T00:00:00Z,27.8903,-94.0367,2.0,186.1456532,23.44474781,-99999.0,'11111222,11111222,99999999' 
TABS,ioos:station:wmo:42046:1,2007-08-03T00:30:00Z,27.8903,-94.0367,2.0,188.8550113,24.36036535,-99999.0,'11111222,11111222,99999999' 
TABS,ioos:station:wmo:42046:1,2007-08-03T01:00:00Z,27.8903,-94.0367,2.0,193.1250155,23.33972793,-99999.0,'11111222,11111222,99999999' 
TABS,ioos:station:wmo:42046:1,2007-08-03T01:30:00Z,27.8903,-94.0367,2.0,203.0859448,8.033343015,-99999.0,'11133222,11111222,99999999' 
TABS,ioos:station:wmo:42046:1,2007-08-03T02:00:00Z,27.8903,-94.0367,2.0,203.3640794,16.33984088,-99999.0,'11111222,11111222,99999999' 
TABS,ioos:station:wmo:42046:1,2007-08-03T02:30:00Z,27.8903,-94.0367,2.0,217.7827806,22.96491672,-99999.0,'11111222,11111222,99999999' 
TABS,ioos:station:wmo:42046:1,2007-08-03T03:00:00Z,27.8903,-94.0367,2.0,227.8395102,22.40744742,-99999.0,'11111222,11111222,99999999' 
TABS,ioos:station:wmo:42046:1,2007-08-03T03:30:00Z,27.8903,-94.0367,2.0,237.566637,21.87154544,-99999.0,'11111222,11111222,99999999' 
TABS,ioos:station:wmo:42046:1,2007-08-03T04:00:00Z,27.8903,-94.0367,2.0,250.7594347,21.15140184,-99999.0,'11111222,11111222,99999999' 
TABS,ioos:station:wmo:42046:1,2007-08-03T04:30:00Z,27.8903,-94.0367,2.0,263.1087814,19.42028064,-99999.0,'11111222,11111222,99999999' 
TABS,ioos:station:wmo:42046:1,2007-08-03T05:00:00Z,27.8903,-94.0367,2.0,273.4971355,18.85510276,-99999.0,'11111222,11111222,99999999' 
TABS,ioos:station:wmo:42046:1,2007-08-03T05:30:00Z,27.8903,-94.0367,2.0,284.2396052,17.11584646,-99999.0,'11111222,11111222,99999999' 
TABS,ioos:station:wmo:42046:1,2007-08-03T06:00:00Z,27.8903,-94.0367,2.0,289.6853571,18.55433642,-99999.0,'11111222,11111222,99999999' 
TABS,ioos:station:wmo:42046:1,2007-08-03T06:30:00Z,27.8903,-94.0367,2.0,298.7493551,21.12382541,-99999.0,'11111222,11111222,99999999' 
TABS,ioos:station:wmo:42046:1,2007-08-03T07:00:00Z,27.8903,-94.0367,2.0,306.4288186,23.10468567,-99999.0,'11111222,11111222,99999999' 
TABS,ioos:station:wmo:42046:1,2007-08-03T07:30:00Z,27.8903,-94.0367,2.0,304.3830694,20.87766749,-99999.0,'11111222,11111222,99999999' 
TABS,ioos:station:wmo:42046:1,2007-08-03T08:00:00Z,27.8903,-94.0367,2.0,312.3285767,22.6024888,-99999.0,'11111222,11111222,99999999' 
TABS,ioos:station:wmo:42046:1,2007-08-03T08:30:00Z,27.8903,-94.0367,2.0,314.9413089,20.59803146,-99999.0,'11111222,11111222,99999999' 
TABS,ioos:station:wmo:42046:1,2007-08-03T09:00:00Z,27.8903,-94.0367,2.0,322.9369004,23.09613171,-99999.0,'11111222,11111222,99999999' 
TABS,ioos:station:wmo:42046:1,2007-08-03T09:30:00Z,27.8903,-94.0367,2.0,326.3879318,20.44904154,-99999.0,'11111222,11111222,99999999' 
TABS,ioos:station:wmo:42046:1,2007-08-03T10:00:00Z,27.8903,-94.0367,2.0,331.1983485,19.82219463,-99999.0,'11111222,11111222,99999999' 
TABS,ioos:station:wmo:42046:1,2007-08-03T10:30:00Z,27.8903,-94.0367,2.0,344.5565451,19.45237518,-99999.0,'11111222,11111222,99999999' 
TABS,ioos:station:wmo:42046:1,2007-08-03T11:00:00Z,27.8903,-94.0367,2.0,333.8355727,5.760251731,-99999.0,'11133222,11111222,99999999' 
TABS,ioos:station:wmo:42046:1,2007-08-03T11:30:00Z,27.8903,-94.0367,2.0,1.699631373,20.56904713,-99999.0,'11111222,11111222,99999999' 
TABS,ioos:station:wmo:42046:1,2007-08-03T12:00:00Z,27.8903,-94.0367,2.0,5.2078901,23.466866,-99999.0,'11111222,11111222,99999999' 
TABS,ioos:station:wmo:42046:1,2007-08-03T12:30:00Z,27.8903,-94.0367,2.0,10.95819407,22.98916701,-99999.0,'11111222,11111222,99999999' 
TABS,ioos:station:wmo:42046:1,2007-08-03T13:00:00Z,27.8903,-94.0367,2.0,15.69857784,23.5795335,-99999.0,'11111222,11111222,99999999' 
TABS,ioos:station:wmo:42046:1,2007-08-03T13:30:00Z,27.8903,-94.0367,2.0,24.90335797,23.74808624,-99999.0,'11111222,11111222,99999999' 
TABS,ioos:station:wmo:42046:1,2007-08-03T14:00:00Z,27.8903,-94.0367,2.0,29.44521297,22.51881436,-99999.0,'11111222,11111222,99999999' 
TABS,ioos:station:wmo:42046:1,2007-08-03T14:30:00Z,27.8903,-94.0367,2.0,37.13565188,19.84421326,-99999.0,'11111222,11111222,99999999' 
TABS,ioos:station:wmo:42046:1,2007-08-03T15:00:00Z,27.8903,-94.0367,2.0,37.00201393,20.83605529,-99999.0,'11111222,11111222,99999999' 
TABS,ioos:station:wmo:42046:1,2007-08-03T15:30:00Z,27.8903,-94.0367,2.0,42.95253126,19.98852921,-99999.0,'11111222,11111222,99999999' 
TABS,ioos:station:wmo:42046:1,2007-08-03T16:00:00Z,27.8903,-94.0367,2.0,47.31785441,20.28227305,-99999.0,'11111222,11111222,99999999' 
TABS,ioos:station:wmo:42046:1,2007-08-03T16:30:00Z,27.8903,-94.0367,2.0,48.50013169,18.8796107,-99999.0,'11111222,11111222,99999999' 
TABS,ioos:station:wmo:42046:1,2007-08-03T17:00:00Z,27.8903,-94.0367,2.0,52.5255402,18.57303422,-99999.0,'11111222,11111222,99999999' 
TABS,ioos:station:wmo:42046:1,2007-08-03T17:30:00Z,27.8903,-94.0367,2.0,58.25108725,19.89741943,-99999.0,'11111222,11111222,99999999' 
TABS,ioos:station:wmo:42046:1,2007-08-03T18:00:00Z,27.8903,-94.0367,2.0,63.12614253,16.59186548,-99999.0,'11111222,11111222,99999999' 
TABS,ioos:station:wmo:42046:1,2007-08-03T18:30:00Z,27.8903,-94.0367,2.0,66.59692638,15.08063991,-99999.0,'11111222,11111222,99999999' 
TABS,ioos:station:wmo:42046:1,2007-08-03T19:00:00Z,27.8903,-94.0367,2.0,75.66981736,14.18124466,-99999.0,'11111222,11111222,99999999' 
TABS,ioos:station:wmo:42046:1,2007-08-03T19:30:00Z,27.8903,-94.0367,2.0,76.88591379,14.01552354,-99999.0,'11111222,11111222,99999999' 
TABS,ioos:station:wmo:42046:1,2007-08-03T20:00:00Z,27.8903,-94.0367,2.0,90.61891037,12.96075615,-99999.0,'11111222,11111222,99999999' 
TABS,ioos:station:wmo:42046:1,2007-08-03T20:30:00Z,27.8903,-94.0367,2.0,98.90596732,11.17472595,-99999.0,'11111222,11111222,99999999' 
TABS,ioos:station:wmo:42046:1,2007-08-03T21:00:00Z,27.8903,-94.0367,2.0,110.4682166,10.69523258,-99999.0,'11111222,11111222,99999999' 
TABS,ioos:station:wmo:42046:1,2007-08-03T21:30:00Z,27.8903,-94.0367,2.0,115.8845502,9.414510078,-99999.0,'11133222,11111222,99999999' 
TABS,ioos:station:wmo:42046:1,2007-08-03T22:00:00Z,27.8903,-94.0367,2.0,136.9904114,8.957376848,-99999.0,'11133222,11111222,99999999' 
TABS,ioos:station:wmo:42046:1,2007-08-03T22:30:00Z,27.8903,-94.0367,2.0,149.7949438,8.805509639,-99999.0,'11133222,11111222,99999999' 
TABS,ioos:station:wmo:42046:1,2007-08-03T23:00:00Z,27.8903,-94.0367,2.0,164.2952453,8.497199539,-99999.0,'11133222,11111222,99999999' 
TABS,ioos:station:wmo:42046:1,2007-08-03T23:30:00Z,27.8903,-94.0367,2.0,181.1468238,8.991801822,-99999.0,'11133222,11111222,99999999' 
TABS,ioos:station:wmo:42046:1,2007-08-04T00:00:00Z,27.8903,-94.0367,2.0,186.4908471,11.32258363,-99999.0,'11111222,11111222,99999999' 
TABS,ioos:station:wmo:42046:1,2007-08-04T00:30:00Z,27.8903,-94.0367,2.0,213.8302085,7.921142594,-99999.0,'11133222,11111222,99999999' 
TABS,ioos:station:wmo:42046:1,2007-08-04T01:00:00Z,27.8903,-94.0367,2.0,212.844771,9.403190948,-99999.0,'11133222,11111222,99999999' 
TABS,ioos:station:wmo:42046:1,2007-08-04T01:30:00Z,27.8903,-94.0367,2.0,228.3142624,1.834475402,-99999.0,'11133222,11111222,99999999' 
TABS,ioos:station:wmo:42046:1,2007-08-04T02:00:00Z,27.8903,-94.0367,2.0,216.869601,12.05,-99999.0,'11111222,11111222,99999999' 
TABS,ioos:station:wmo:42046:1,2007-08-04T02:30:00Z,27.8903,-94.0367,2.0,214.1852125,14.43383871,-99999.0,'11111222,11111222,99999999' 
TABS,ioos:station:wmo:42046:1,2007-08-04T03:00:00Z,27.8903,-94.0367,2.0,233.0357283,13.40401805,-99999.0,'11111222,11111222,99999999' 
TABS,ioos:station:wmo:42046:1,2007-08-04T03:30:00Z,27.8903,-94.0367,2.0,247.8203603,15.20506495,-99999.0,'11111222,11111222,99999999' 
TABS,ioos:station:wmo:42046:1,2007-08-04T04:00:00Z,27.8903,-94.0367,2.0,260.2147708,16.06367953,-99999.0,'11111222,11111222,99999999' 
TABS,ioos:station:wmo:42046:1,2007-08-04T04:30:00Z,27.8903,-94.0367,2.0,264.6437666,15.10594916,-99999.0,'11111222,11111222,99999999' 
TABS,ioos:station:wmo:42046:1,2007-08-04T05:00:00Z,27.8903,-94.0367,2.0,277.8493343,17.86738929,-99999.0,'11111222,11111222,99999999' 
TABS,ioos:station:wmo:42046:1,2007-08-04T05:30:00Z,27.8903,-94.0367,2.0,280.5977313,17.34585253,-99999.0,'11111222,11111222,99999999' 
TABS,ioos:station:wmo:42046:1,2007-08-04T06:00:00Z,27.8903,-94.0367,2.0,288.0871614,16.65286162,-99999.0,'11111222,11111222,99999999' 
TABS,ioos:station:wmo:42046:1,2007-08-04T06:30:00Z,27.8903,-94.0367,2.0,296.7921726,16.94952802,-99999.0,'11111222,11111222,99999999' 
TABS,ioos:station:wmo:42046:1,2007-08-04T07:00:00Z,27.8903,-94.0367,2.0,304.2543404,20.28914242,-99999.0,'11111222,11111222,99999999' 
TABS,ioos:station:wmo:42046:1,2007-08-04T07:30:00Z,27.8903,-94.0367,2.0,305.5724734,17.39646228,-99999.0,'11111222,11111222,99999999' 
TABS,ioos:station:wmo:42046:1,2007-08-04T08:00:00Z,27.8903,-94.0367,2.0,305.3690256,16.94781697,-99999.0,'11111222,11111222,99999999' 
TABS,ioos:station:wmo:42046:1,2007-08-04T08:30:00Z,27.8903,-94.0367,2.0,307.5756452,15.59518195,-99999.0,'11111222,11111222,99999999' 
TABS,ioos:station:wmo:42046:1,2007-08-04T09:00:00Z,27.8903,-94.0367,2.0,335.7429429,18.54757397,-99999.0,'11111222,11111222,99999999' 
TABS,ioos:station:wmo:42046:1,2007-08-04T09:30:00Z,27.8903,-94.0367,2.0,334.5266054,14.3223776,-99999.0,'11111222,11111222,99999999' 
TABS,ioos:station:wmo:42046:1,2007-08-04T10:00:00Z,27.8903,-94.0367,2.0,337.5283549,16.97928738,-99999.0,'11111222,11111222,99999999' 
TABS,ioos:station:wmo:42046:1,2007-08-04T10:30:00Z,27.8903,-94.0367,2.0,341.4251036,15.50785607,-99999.0,'11111222,11111222,99999999' 
TABS,ioos:station:wmo:42046:1,2007-08-04T11:00:00Z,27.8903,-94.0367,2.0,354.4726832,10.27779159,-99999.0,'11111222,11111222,99999999' 
TABS,ioos:station:wmo:42046:1,2007-08-04T11:30:00Z,27.8903,-94.0367,2.0,357.0433524,19.38580924,-99999.0,'11111222,11111222,99999999' 
TABS,ioos:station:wmo:42046:1,2007-08-04T12:00:00Z,27.8903,-94.0367,2.0,349.5792228,21.61656078,-99999.0,'11111222,11111222,99999999' 
TABS,ioos:station:wmo:42046:1,2007-08-04T12:30:00Z,27.8903,-94.0367,2.0,354.5501565,22.320905,-99999.0,'11111222,11111222,99999999' 
TABS,ioos:station:wmo:42046:1,2007-08-04T13:00:00Z,27.8903,-94.0367,2.0,353.0737903,20.39887497,-99999.0,'11111222,11111222,99999999' 
TABS,ioos:station:wmo:42046:1,2007-08-04T13:30:00Z,27.8903,-94.0367,2.0,4.417414435,16.61936521,-99999.0,'11111222,11111222,99999999' 
TABS,ioos:station:wmo:42046:1,2007-08-04T14:00:00Z,27.8903,-94.0367,2.0,1.679505824,18.76806064,-99999.0,'11111222,11111222,99999999' 
TABS,ioos:station:wmo:42046:1,2007-08-04T14:30:00Z,27.8903,-94.0367,2.0,9.167025454,16.25763205,-99999.0,'11111222,11111222,99999999' 
TABS,ioos:station:wmo:42046:1,2007-08-04T15:00:00Z,27.8903,-94.0367,2.0,7.03032371,22.46892298,-99999.0,'11111222,11111222,99999999' 
TABS,ioos:station:wmo:42046:1,2007-08-04T15:30:00Z,27.8903,-94.0367,2.0,11.77573521,28.95946477,-99999.0,'11111222,11111222,99999999' 
TABS,ioos:station:wmo:42046:1,2007-08-04T16:00:00Z,27.8903,-94.0367,2.0,14.81095421,23.86283512,-99999.0,'11111222,11111222,99999999' 